IW2HNF-3 Weather Reports


Display with metric or nautical units.
time (UTC)temp
F
wind
direction
speed
MPH
gust
MPH
rain 1hr
in
rain 24hr
in
rain mn
in
humidity
%
barometer
mb
20260507222054 56 0.0 1.0 0.00 0.05 0.00 82 1013.4
20260507221030 56 0.0 1.0 0.00 0.05 0.00 81 1013.3
20260507220718 56 0.0 2.0 0.00 0.05 0.00 82 1013.3
20260507215030 56 0.0 1.0 0.00 0.05 0.05 81 1013.3
20260507214054 56 0.0 1.0 0.00 0.05 0.05 80 1013.1
20260507213030 57 0.0 1.0 0.00 0.05 0.05 79 1013.0
20260507212054 57 0.0 1.0 0.00 0.05 0.05 78 1013.0
20260507211030 57 0.0 1.0 0.00 0.05 0.05 76 1013.0
20260507205030 57 0.0 0.0 0.00 0.05 0.05 77 1012.9
20260507204054 58 0.0 1.0 0.00 0.05 0.05 76 1012.8
20260507203031 59 0.0 1.0 0.00 0.05 0.05 75 1012.9
20260507202054 59 0.0 0.0 0.00 0.05 0.05 75 1012.7
20260507201030 59 0.0 0.0 0.00 0.05 0.05 75 1012.6
20260507200718 59 0.0 0.0 0.00 0.05 0.05 74 1012.4
20260507195030 59 0.0 0.0 0.00 0.05 0.05 71 1012.2
20260507193031 61 0.0 0.0 0.00 0.05 0.05 68 1012.0
20260507192054 62 0.0 0.0 0.00 0.05 0.05 67 1011.9
20260507191030 62 0.0 0.0 0.00 0.05 0.05 67 1011.7
20260507185030 63 0.0 1.0 0.00 0.05 0.05 70 1011.6
20260507184054 64 0.0 0.0 0.00 0.06 0.05 67 1011.4
20260507183031 64 0.0 1.0 0.00 0.08 0.05 69 1011.3
20260507182054 66 0.0 0.0 0.00 0.17 0.05 68 1011.3
20260507181030 67 0.0 0.0 0.00 0.33 0.05 67 1011.2
20260507175606 68 0.0 0.0 0.00 0.34 0.05 64 1011.0
20260507174543 68 0.0 1.0 0.00 0.34 0.05 64 1010.9
20260507173607 69 0.0 0.0 0.00 0.34 0.05 63 1010.8
20260507172542 69 0.0 1.0 0.00 0.34 0.05 63 1010.8
20260507171606 68 0.0 1.0 0.00 0.34 0.05 62 1010.7
20260507170542 69 163 1.0 4.0 0.00 0.34 0.05 64 1010.7
20260507165606 69 0.0 1.0 0.00 0.34 0.05 62 1010.6
20260507164542 69 0.0 2.0 0.00 0.34 0.05 63 1010.6
20260507163606 69 0.0 1.0 0.00 0.34 0.05 61 1010.6
20260507162543 69 0.0 2.0 0.00 0.34 0.05 60 1010.5
20260507161607 69 0.0 2.0 0.00 0.34 0.05 61 1010.5
20260507133526 68 0.0 1.0 0.00 3.87 0.05 68 1011.1
20260507132550 67 277 1.0 5.0 0.00 4.29 0.05 64 1011.1
20260507131527 67 236 2.0 5.0 0.00 4.38 0.05 67 1011.2
20260507130550 67 225 2.0 7.0 0.00 4.38 0.05 69 1011.3
20260507125526 67 0.0 2.0 0.00 4.39 0.05 67 1011.3
20260507124550 67 219 2.0 8.0 0.00 4.41 0.05 68 1011.3
20260507123526 67 0.0 1.0 0.00 4.41 0.05 69 1011.4
20260507122550 66 0.0 2.0 0.00 4.41 0.05 71 1011.4
20260507121527 66 206 1.0 8.0 0.00 4.41 0.05 78 1011.4
20260507120815 65 0.0 2.0 0.00 4.42 0.05 78 1011.5
20260507115038 65 213 3.0 8.0 0.00 4.42 0.05 76 1011.6
20260507114048 64 0.0 1.0 0.00 4.42 0.05 77 1011.7
20260507113112 64 237 5.0 8.0 0.00 4.42 0.05 83 1011.8
20260507110047 64 282 1.0 5.0 0.00 4.42 0.05 88 1012.1
20260507105111 63 0.0 2.0 0.00 4.42 0.05 88 1012.2
20260507104033 62 135 0.0 2.0 0.00 4.42 0.05 86 1012.3
20260507103057 62 192 1.0 3.0 0.00 4.42 0.05 85 1012.3
20260507102033 62 239 2.0 6.0 0.00 4.42 0.05 84 1012.4
20260507101057 62 306 1.0 3.0 0.00 4.42 0.05 84 1012.4
20260507100745 62 0.0 2.0 0.00 4.42 0.05 92 1012.4
20260507095057 62 0.0 1.0 0.00 4.42 0.05 92 1012.4
20260507094033 61 0.0 0.0 0.00 4.42 0.05 91 1012.4
20260507093059 61 0.0 0.0 0.00 4.42 0.05 90 1012.4
20260507092033 60 0.0 0.0 0.00 4.42 0.05 89 1012.4
20260507091058 60 0.0 0.0 0.00 4.42 0.05 90 1012.4
20260507090033 60 0.0 0.0 0.00 4.42 0.05 90 1012.4
20260507085058 60 0.0 2.0 0.00 4.46 0.05 89 1012.3
20260507084034 59 0.0 0.0 0.00 4.49 0.05 90 1012.3
20260507083057 58 0.0 1.0 0.00 4.51 0.05 92 1012.3
20260507082033 58 0.0 0.0 0.00 4.55 0.05 95 1012.3
20260507081057 57 0.0 0.0 0.00 4.63 0.05 95 1012.2
20260507080747 57 0.0 1.0 0.00 4.67 0.05 96 1012.2
20260507075057 56 0.0 1.0 0.00 4.69 0.05 97 1012.0
20260507074033 56 0.0 1.0 0.00 4.69 0.05 97 1012.0
20260507073057 56 0.0 2.0 0.00 4.70 0.05 97 1011.9
20260507072033 55 0.0 1.0 0.00 4.70 0.05 97 1011.9
20260507071058 55 0.0 1.0 0.00 4.70 0.05 97 1011.9
20260507070035 55 0.0 2.0 0.00 4.70 0.05 97 1011.8
20260507065057 55 0.0 1.0 0.00 4.71 0.05 97 1011.6
20260507064033 55 0.0 1.0 0.00 4.71 0.05 97 1011.6
20260507063057 54 0.0 0.0 0.00 4.71 0.05 98 1011.5
20260507062033 53 0.0 0.0 0.00 4.71 0.05 98 1011.4
20260507061057 53 0.0 1.0 0.00 4.71 0.05 98 1011.4
20260507060745 52 0.0 1.0 0.00 4.72 0.05 99 1011.3
20260507055057 51 0.0 2.0 0.00 4.72 0.05 99 1011.2
20260507054034 51 0.0 1.0 0.00 4.72 0.05 99 1011.1
20260507053058 50 0.0 2.0 0.00 4.72 0.05 99 1010.9
20260507052033 50 0.0 1.0 0.00 4.72 0.05 99 1010.9
20260507051058 50 0.0 2.0 0.00 4.74 0.05 99 1010.8
20260507050033 49 0.0 0.0 0.00 4.75 0.05 99 1010.7
20260507045058 49 0.0 1.0 0.01 4.77 0.05 99 1010.6
20260507044033 49 0.0 1.0 0.02 4.77 0.05 99 1010.5
20260507043057 49 0.0 1.0 0.02 4.77 0.05 99 1010.4
20260507042033 49 0.0 1.0 0.02 4.78 0.05 99 1010.5
20260507041058 50 0.0 0.0 0.02 4.80 0.05 99 1010.4
20260507040746 50 0.0 1.0 0.02 4.80 0.05 99 1010.4
20260507035058 50 0.0 1.0 0.01 4.78 0.04 99 1010.3
20260507034034 50 0.0 0.0 0.00 4.77 0.02 99 1010.4
20260507033057 50 0.0 1.0 0.00 4.77 0.02 99 1010.3
20260507032034 50 0.0 1.0 0.00 4.78 0.02 99 1010.3
20260507031058 50 0.0 1.0 0.00 4.78 0.02 99 1010.2
20260507030033 50 0.0 2.0 0.00 4.80 0.02 99 1010.3
20260507025059 50 0.0 2.0 0.00 4.80 0.02 99 1010.2
20260507024034 50 0.0 2.0 0.00 4.80 0.02 99 1010.2
20260507023058 49 0.0 2.0 0.00 4.81 0.02 99 1010.2
20260507022034 49 0.0 1.0 0.00 4.81 0.02 99 1010.3
20260507021058 49 0.0 1.0 0.00 4.81 0.02 99 1010.3
20260507020746 49 0.0 2.0 0.00 4.81 0.02 99 1010.4
20260507015059 50 0.0 1.0 0.01 4.81 0.02 99 1010.2
20260507014035 50 0.0 0.0 0.02 4.81 0.02 99 1010.2
20260507013058 50 0.0 2.0 0.02 4.81 0.02 99 1010.1
20260507012033 50 0.0 2.0 0.02 4.81 0.02 99 1010.1
20260507011058 50 0.0 2.0 0.02 4.81 0.02 99 1010.1
20260507010034 50 0.0 1.0 0.02 4.81 0.02 99 1010.2
20260507005058 50 0.0 1.0 0.01 4.80 0.01 99 1010.1
20260507004035 50 0.0 0.0 0.00 4.78 0.00 99 1009.9
20260507003058 50 0.0 1.0 0.00 4.78 0.00 99 1009.8
20260507002034 50 0.0 1.0 0.00 4.78 0.00 99 1009.8
20260507001058 50 0.0 0.0 0.00 4.78 0.00 99 1009.9
20260507000747 50 0.0 0.0 0.00 4.78 0.00 99 1009.9
20260506235058 50 0.0 1.0 0.00 4.78 0.00 99 1009.9
20260506234034 50 0.0 1.0 0.00 4.78 0.00 99 1009.9
20260506233059 50 0.0 2.0 0.00 4.78 0.00 99 1009.9
20260506232034 50 0.0 2.0 0.00 4.78 0.00 99 1009.9
20260506231059 50 0.0 2.0 0.00 4.78 0.00 99 1009.8
20260506230034 50 0.0 2.0 0.00 4.78 0.00 99 1009.8
20260506225059 50 0.0 1.0 0.00 4.78 0.00 99 1009.7
20260506224034 50 0.0 1.0 0.00 4.78 0.00 99 1009.6
20260506223059 50 0.0 2.0 0.00 4.78 0.00 99 1009.6